• En España
  • Lista de países
  • Para 7 días
  • Temperatura del agua
  • Mapa Satelital
  • El tiempo en el mapa
  • Informadores
  • user-avatar
    Iniciar sesión

    Tiempo cada hora Valbom

    Hoy, 24 Junio, Domingo

    Tiempo Temperatura Precipitaciones Viento Presión Humedad
    00:00 +25°C° 0 mm 1 mps 759 mmHg 71%
    01:00 +24°C° 0 mm 1 mps 758 mmHg 71%
    02:00 +24°C° 0 mm 1 mps 758 mmHg 71%
    03:00 +24°C° 0 mm 1 mps 758 mmHg 70%
    04:00 +24°C° 0 mm 1 mps 758 mmHg 70%
    05:00 +24°C° 0 mm 1 mps 759 mmHg 69%
    06:00 +26°C° 0 mm 1 mps 759 mmHg 62%
    07:00 +28°C° 0 mm 1 mps 759 mmHg 55%
    08:00 +31°C° 0 mm 1 mps 759 mmHg 48%
    09:00 +32°C° 0 mm 1 mps 759 mmHg 46%
    10:00 +34°C° 0 mm 2 mps 759 mmHg 43%
    11:00 +36°C° 0 mm 2 mps 759 mmHg 41%
    12:00 +35°C° 0 mm 3 mps 758 mmHg 42%
    13:00 +35°C° 0 mm 3 mps 758 mmHg 43%
    14:00 +35°C° 0 mm 3 mps 758 mmHg 44%
    15:00 +33°C° 0,2 mm 3 mps 758 mmHg 49%
    16:00 +31°C° 0,2 mm 3 mps 758 mmHg 54%
    17:00 +30°C° 0,2 mm 3 mps 758 mmHg 59%
    18:00 +28°C° 0,7 mm 2 mps 758 mmHg 65%
    19:00 +26°C° 0,7 mm 2 mps 758 mmHg 72%
    20:00 +24°C° 0,7 mm 2 mps 759 mmHg 79%
    21:00 +24°C° 0,7 mm 1 mps 759 mmHg 80%
    22:00 +23°C° 0,7 mm 1 mps 759 mmHg 82%
    23:00 +23°C° 0,7 mm 1 mps 759 mmHg 83%

    Mañana, 25 Junio, Lunes

    Tiempo Temperatura Precipitaciones Viento Presión Humedad
    00:00 +23°C° 0,2 mm 1 mps 759 mmHg 84%
    01:00 +22°C° 0,2 mm 1 mps 759 mmHg 84%
    02:00 +22°C° 0,2 mm 1 mps 758 mmHg 85%
    03:00 +22°C° 0,2 mm 1 mps 758 mmHg 85%
    04:00 +22°C° 0,2 mm 1 mps 759 mmHg 85%
    05:00 +22°C° 0,2 mm 1 mps 759 mmHg 85%
    06:00 +24°C° 0 mm 1 mps 759 mmHg 79%
    07:00 +26°C° 0 mm 1 mps 759 mmHg 72%
    08:00 +28°C° 0 mm 2 mps 760 mmHg 65%
    09:00 +29°C° 0 mm 2 mps 760 mmHg 61%
    10:00 +30°C° 0 mm 2 mps 760 mmHg 58%
    11:00 +31°C° 0 mm 3 mps 760 mmHg 54%
    12:00 +30°C° 0 mm 3 mps 760 mmHg 55%
    13:00 +30°C° 0 mm 3 mps 759 mmHg 55%
    14:00 +30°C° 0 mm 4 mps 759 mmHg 55%
    15:00 +29°C° 0 mm 3 mps 759 mmHg 59%
    16:00 +28°C° 0 mm 3 mps 760 mmHg 62%
    17:00 +27°C° 0 mm 3 mps 760 mmHg 66%
    18:00 +25°C° 0 mm 3 mps 760 mmHg 72%
    19:00 +23°C° 0 mm 2 mps 760 mmHg 79%
    20:00 +21°C° 0 mm 2 mps 761 mmHg 85%
    21:00 +20°C° 0 mm 2 mps 761 mmHg 87%
    22:00 +21°C° 0 mm 1 mps 761 mmHg 89%
    23:00 +20°C° 0 mm 1 mps 761 mmHg 91%

    Pasado mañana, 26 Junio, Martes

    Tiempo Temperatura Precipitaciones Viento Presión Humedad
    00:00 +20°C° 0 mm 1 mps 761 mmHg 91%
    01:00 +20°C° 0 mm 1 mps 761 mmHg 92%
    02:00 +19°C° 0 mm 1 mps 760 mmHg 93%
    03:00 +20°C° 0 mm 1 mps 760 mmHg 92%
    04:00 +20°C° 0 mm 1 mps 760 mmHg 91%
    05:00 +20°C° 0 mm 1 mps 760 mmHg 90%
    06:00 +22°C° 0 mm 1 mps 760 mmHg 83%
    07:00 +23°C° 0 mm 1 mps 761 mmHg 76%
    08:00 +25°C° 0 mm 2 mps 761 mmHg 69%
    09:00 +26°C° 0 mm 2 mps 761 mmHg 63%
    10:00 +27°C° 0 mm 3 mps 761 mmHg 57%
    11:00 +28°C° 0 mm 3 mps 761 mmHg 52%
    12:00 +28°C° 0 mm 3 mps 761 mmHg 51%
    13:00 +28°C° 0 mm 4 mps 760 mmHg 51%
    14:00 +28°C° 0 mm 4 mps 760 mmHg 50%
    15:00 +27°C° 0 mm 4 mps 760 mmHg 53%
    16:00 +26°C° 0 mm 4 mps 760 mmHg 57%
    17:00 +25°C° 0 mm 3 mps 760 mmHg 60%
    18:00 +24°C° 0 mm 3 mps 761 mmHg 68%
    19:00 +21°C° 0 mm 3 mps 761 mmHg 76%
    20:00 +19°C° 0 mm 2 mps 761 mmHg 84%
    21:00 +18°C° 0 mm 2 mps 761 mmHg 86%
    22:00 +18°C° 0 mm 2 mps 761 mmHg 88%
    23:00 +18°C° 0 mm 1 mps 761 mmHg 90%

    27 Junio, Miércoles

    Tiempo Temperatura Precipitaciones Viento Presión Humedad
    00:00 +18°C° 0 mm 1 mps 761 mmHg 90%
    01:00 +18°C° 0 mm 1 mps 761 mmHg 91%
    02:00 +18°C° 0 mm 1 mps 761 mmHg 91%
    03:00 +18°C° 0 mm 1 mps 761 mmHg 90%
    04:00 +18°C° 0 mm 1 mps 761 mmHg 89%
    05:00 +18°C° 0 mm 1 mps 761 mmHg 89%
    06:00 +20°C° 0 mm 1 mps 761 mmHg 80%
    07:00 +22°C° 0 mm 1 mps 761 mmHg 71%
    08:00 +24°C° 0 mm 2 mps 761 mmHg 63%
    09:00 +25°C° 0 mm 2 mps 761 mmHg 58%
    10:00 +27°C° 0 mm 3 mps 761 mmHg 54%
    11:00 +28°C° 0 mm 3 mps 761 mmHg 49%
    12:00 +28°C° 0 mm 3 mps 760 mmHg 50%
    13:00 +28°C° 0 mm 4 mps 760 mmHg 50%
    14:00 +28°C° 0 mm 4 mps 760 mmHg 51%
    15:00 +27°C° 0 mm 4 mps 760 mmHg 55%
    16:00 +26°C° 0 mm 4 mps 760 mmHg 59%
    17:00 +25°C° 0 mm 3 mps 760 mmHg 63%
    18:00 +22°C° 0 mm 3 mps 760 mmHg 69%
    19:00 +21°C° 0 mm 3 mps 760 mmHg 75%
    20:00 +19°C° 0 mm 3 mps 760 mmHg 81%
    21:00 +19°C° 0 mm 2 mps 760 mmHg 84%
    22:00 +18°C° 0 mm 2 mps 760 mmHg 86%
    23:00 +18°C° 0 mm 2 mps 760 mmHg 88%

    28 Junio, Jueves

    Tiempo Temperatura Precipitaciones Viento Presión Humedad
    00:00 +18°C° 0 mm 2 mps 759 mmHg 87%
    01:00 +18°C° 0 mm 2 mps 759 mmHg 87%
    02:00 +18°C° 0 mm 2 mps 759 mmHg 86%
    03:00 +18°C° 0 mm 2 mps 758 mmHg 86%
    04:00 +19°C° 0 mm 2 mps 758 mmHg 86%
    05:00 +19°C° 0 mm 2 mps 758 mmHg 85%
    06:00 +21°C° 0 mm 2 mps 758 mmHg 77%
    07:00 +24°C° 0 mm 2 mps 758 mmHg 69%
    08:00 +26°C° 0 mm 2 mps 758 mmHg 62%
    09:00 +28°C° 0 mm 2 mps 757 mmHg 57%
    10:00 +30°C° 0 mm 2 mps 757 mmHg 52%
    11:00 +31°C° 0 mm 3 mps 757 mmHg 47%
    12:00 +31°C° 0,1 mm 3 mps 756 mmHg 48%
    13:00 +30°C° 0,1 mm 3 mps 756 mmHg 49%
    14:00 +30°C° 0,1 mm 4 mps 756 mmHg 51%
    15:00 +28°C° 0,6 mm 3 mps 755 mmHg 56%
    16:00 +27°C° 0,6 mm 3 mps 755 mmHg 62%
    17:00 +26°C° 0,6 mm 3 mps 755 mmHg 68%
    18:00 +25°C° 0,4 mm 2 mps 755 mmHg 73%
    19:00 +23°C° 0,4 mm 2 mps 756 mmHg 77%
    20:00 +22°C° 0,4 mm 1 mps 756 mmHg 82%
    21:00 +22°C° 0,5 mm 1 mps 756 mmHg 84%
    22:00 +21°C° 0,5 mm 1 mps 756 mmHg 85%
    23:00 +21°C° 0,5 mm 1 mps 756 mmHg 87%

    29 Junio, Viernes

    Tiempo Temperatura Precipitaciones Viento Presión Humedad
    00:00 +21°C° 0,3 mm 1 mps 755 mmHg 87%
    01:00 +20°C° 0,3 mm 1 mps 755 mmHg 88%
    02:00 +19°C° 0,3 mm 2 mps 755 mmHg 88%
    03:00 +19°C° 0,4 mm 2 mps 755 mmHg 89%
    04:00 +20°C° 0,4 mm 1 mps 755 mmHg 89%
    05:00 +20°C° 0,4 mm 1 mps 755 mmHg 89%
    06:00 +21°C° 0,3 mm 2 mps 755 mmHg 83%
    07:00 +24°C° 0,3 mm 2 mps 755 mmHg 76%
    08:00 +25°C° 0,3 mm 2 mps 755 mmHg 70%
    09:00 +27°C° 0,1 mm 2 mps 755 mmHg 63%
    10:00 +28°C° 0,1 mm 3 mps 755 mmHg 57%
    11:00 +29°C° 0,1 mm 3 mps 755 mmHg 50%
    12:00 +29°C° 0,3 mm 3 mps 755 mmHg 51%
    13:00 +29°C° 0,3 mm 3 mps 755 mmHg 51%
    14:00 +29°C° 0,3 mm 3 mps 755 mmHg 52%
    15:00 +28°C° 0,6 mm 3 mps 755 mmHg 56%
    16:00 +27°C° 0,6 mm 2 mps 755 mmHg 61%
    17:00 +26°C° 0,6 mm 2 mps 755 mmHg 65%
    18:00 +24°C° 0,6 mm 2 mps 755 mmHg 72%
    19:00 +22°C° 0,6 mm 1 mps 756 mmHg 79%
    20:00 +21°C° 0,6 mm 1 mps 756 mmHg 86%
    21:00 +20°C° 0,2 mm 1 mps 756 mmHg 87%
    22:00 +20°C° 0,2 mm 1 mps 756 mmHg 88%
    23:00 +19°C° 0,2 mm 1 mps 756 mmHg 90%
    Mostrar más